Location: Peach Mountain Observatory
(42.3967°N, 83.9367°W)
Time: 00:19:24
(UTC-05:00)

Tiros 1 despin weight - All Passes

Search period start: 29 January 2020 00:00
Search period end: 08 February 2020 00:00
Orbit: 594 x 642 km, 48.2° (Epoch: 28 January)

Date Brightness Start Highest point End Pass type
(mag) Time Alt. Az. Time Alt. Az. Time Alt. Az.
29 Jan - 08:53:27 10° S 08:56:30 18° SE 08:59:35 10° E daylight
29 Jan - 10:33:04 10° WSW 10:37:32 82° SSE 10:42:06 10° ENE daylight
29 Jan - 12:15:04 10° W 12:19:23 43° N 12:23:47 10° ENE daylight
29 Jan - 13:57:10 10° WNW 14:01:34 45° NNE 14:06:02 10° E daylight
29 Jan - 15:38:47 10° WNW 15:43:23 74° SSW 15:48:01 10° SE daylight
29 Jan - 17:21:28 10° W 17:24:24 17° SW 17:27:20 10° S daylight
30 Jan - 09:08:45 10° SSW 09:12:45 34° SE 09:16:49 10° ENE daylight
30 Jan - 10:49:40 10° WSW 10:54:08 65° NNW 10:58:40 10° ENE daylight
30 Jan - 12:31:56 10° WNW 12:36:11 39° N 12:40:31 10° ENE daylight
30 Jan - 14:13:47 10° WNW 14:18:18 58° NNE 14:22:53 10° E daylight
30 Jan - 15:55:28 10° WNW 15:59:50 43° SW 16:04:13 10° SE daylight
31 Jan - 07:46:32 10° SSE 07:48:18 12° SE 07:50:05 10° ESE daylight
31 Jan - 09:24:46 10° SW 09:29:08 61° SSE 09:33:36 10° ENE daylight
31 Jan - 11:06:29 10° W 11:10:50 48° NNW 11:15:16 10° ENE daylight
31 Jan - 12:48:41 10° WNW 12:53:00 41° N 12:57:22 10° ENE daylight
31 Jan - 14:30:20 10° WNW 14:34:56 85° NNE 14:39:35 10° ESE daylight
31 Jan - 16:12:28 10° W 16:16:08 24° SW 16:19:51 10° S daylight
01 Feb - 08:00:57 10° S 08:04:29 24° SE 08:08:03 10° E daylight
01 Feb - 09:41:12 10° WSW 09:45:39 82° NNW 09:50:12 10° ENE daylight
01 Feb - 11:23:21 10° WNW 11:27:36 40° N 11:31:56 10° ENE daylight
01 Feb - 13:05:21 10° WNW 13:09:46 49° NNE 13:14:15 10° E daylight
01 Feb - 14:46:56 10° WNW 14:51:27 59° SSW 14:56:00 10° SE daylight
01 Feb - 16:30:26 10° WSW 16:32:20 12° SW 16:34:14 10° SSW daylight
02 Feb - 08:16:36 10° SW 08:20:47 43° SE 08:25:03 10° ENE daylight
02 Feb - 09:57:55 10° W 10:02:18 56° NNW 10:06:46 10° ENE daylight
02 Feb - 11:40:10 10° WNW 11:44:25 39° N 11:48:43 10° ENE daylight
02 Feb - 13:21:56 10° WNW 13:26:27 68° NNE 13:31:03 10° ESE daylight
02 Feb - 15:03:44 10° WNW 15:07:50 33° SW 15:12:00 10° SSE daylight
03 Feb - 06:53:31 10° S 06:56:16 16° SE 06:59:01 10° E visible
03 Feb - 08:32:49 10° SW 08:37:14 76° SSE 08:41:44 10° ENE daylight
03 Feb - 10:14:45 10° W 10:19:02 44° N 10:23:23 10° ENE daylight
03 Feb - 11:56:53 10° WNW 12:01:12 43° N 12:05:36 10° E daylight
03 Feb - 13:38:29 10° WNW 13:43:03 80° SSW 13:47:39 10° ESE daylight
03 Feb - 15:20:59 10° W 15:24:07 18° SW 15:27:15 10° S daylight
04 Feb - 07:08:37 10° SSW 07:12:29 30° SE 07:16:24 10° ENE visible
04 Feb - 08:49:24 10° WSW 08:53:48 69° NNW 08:58:18 10° ENE daylight
04 Feb - 10:31:37 10° WNW 10:35:50 39° N 10:40:06 10° ENE daylight
04 Feb - 12:13:30 10° WNW 12:17:57 55° NNE 12:22:27 10° E daylight
04 Feb - 13:55:09 10° WNW 13:59:30 46° SW 14:03:55 10° SE daylight
05 Feb - 05:47:06 10° SE 05:48:04 11° SE 05:49:03 10° ESE visible
05 Feb - 07:24:32 10° SW 07:28:51 55° SSE 07:33:13 10° ENE daylight
05 Feb - 09:06:11 10° W 09:10:29 49° NNW 09:14:53 10° ENE daylight
05 Feb - 10:48:24 10° WNW 10:52:38 40° N 10:56:56 10° ENE daylight
05 Feb - 12:30:04 10° WNW 12:34:36 80° NNE 12:39:11 10° ESE daylight
05 Feb - 14:12:04 10° W 14:15:51 26° SW 14:19:39 10° SSE daylight
06 Feb - 06:00:54 10° S 06:04:14 21° SE 06:07:36 10° E visible
06 Feb - 07:40:55 10° WSW 07:45:21 88° NNW 07:49:51 10° ENE daylight
06 Feb - 09:23:02 10° WNW 09:27:16 41° N 09:31:32 10° ENE daylight
06 Feb - 11:05:04 10° WNW 11:09:25 47° NNE 11:13:49 10° E daylight
06 Feb - 12:46:39 10° WNW 12:51:08 64° SSW 12:55:40 10° SE daylight
06 Feb - 14:29:47 10° WSW 14:32:03 14° SW 14:34:20 10° SSW daylight
07 Feb - 06:16:26 10° SSW 06:20:32 39° SE 06:24:40 10° ENE visible
07 Feb - 07:57:36 10° W 08:01:59 59° NNW 08:06:24 10° ENE daylight
07 Feb - 09:39:52 10° WNW 09:44:04 39° N 09:48:18 10° ENE daylight
07 Feb - 11:21:39 10° WNW 11:26:07 63° NNE 11:30:38 10° ESE daylight
07 Feb - 13:03:23 10° WNW 13:07:33 36° SW 13:11:44 10° SSE daylight
